Content
SEND FEEDBACK

Daily
Averages
Monthly
Summary
United States of America

ST. LOUIS, MISSOURI


Home > North America > United States > Missouri
Elevation: 163 meters     Latitude: 38 45N     Longitude: 090 22W

WEATHER
 
SELECT A DAY
Number of Records: 200,435;   Date Range: 1/1/95 - 11/20/14
 
SHARE

PRINT THIS DATA

[ ← Previous Day ]
WEATHER ALMANAC - 6 MARCH, 2013
[ Next Day → ]
[ °F ]   °C
Weather ElementAverageHighLow
Temperature-0.2 °C3.3 °C (2:54 pm)-4.4 °C (10:54 pm)
Dewpoint-6.2 °C-5.6 °C (12:54 am)-7.2 °C (9:54 pm)
Humidity64.8 %84 % (10:54 pm)52 % (3:54 pm)
Barometer1027.1 hPa1029.5 hPa (10:54 am)1022.4 hPa (12:54 am)
Wind Speed17.2 km/h31.5 km/h (8:54 am)
Wind Gust48.1 km/h (2:54 am)
Weather ElementAverage
Visibility16.1 km
Wind DirectionWSW (247.6 °)

Weather ElementTotal
Precipitation---
Heating Degree Days18.9 (Base 18.3)
Averaged from 29 records on 6 March, 2013
WEATHER CONDITIONS BREAKOUT
WIND DIRECTION BREAKOUT
WEATHER BY HOUR - 6 MARCH, 2013
[ °F ]   °C
Local TimeTemperatureDewpointHumidityBarometerVisibilityWind DirectionWind SpeedGust SpeedPrecipitationEventsConditions
12:54 AM0 °C-5.6 °C66 %1022.4 hPa16.1 kmNW (310°)29.6 km/h40.7 km/hOvercast
1:33 AM0 °C-6 °C64 %1022.4 hPa16.1 kmNW (310°)25.9 km/h44.4 km/hOvercast
1:54 AM0 °C-6.1 °C64 %1023.4 hPa16.1 kmWNW (300°)24.1 km/h35.2 km/hOvercast
2:54 AM-0.6 °C-6.1 °C67 %1023.4 hPa16.1 kmNW (310°)22.2 km/h48.1 km/hOvercast
3:54 AM-0.6 °C-6.1 °C67 %1024.4 hPa16.1 kmWNW (300°)29.6 km/h38.9 km/hOvercast
4:17 AM-1 °C-6 °C69 %1024 hPa16.1 kmNW (310°)20.4 km/h33.3 km/hOvercast
4:54 AM-0.6 °C-6.1 °C67 %1025.7 hPa16.1 kmNW (310°)25.9 km/h35.2 km/hOvercast
5:18 AM-1 °C-6 °C69 %1025.1 hPa16.1 kmNW (310°)24.1 km/hOvercast
5:54 AM-0.6 °C-6.1 °C67 %1026.8 hPa16.1 kmNW (320°)22.2 km/h33.3 km/hOvercast
6:11 AM-1 °C-6 °C69 %1025.7 hPa16.1 kmNW (320°)14.8 km/hOvercast
6:54 AM-0.6 °C-6.1 °C67 %1027.4 hPa16.1 kmNW (310°)25.9 km/hOvercast
7:54 AM-0.6 °C-6.7 °C64 %1028.4 hPa16.1 kmNW (320°)29.6 km/h37 km/hOvercast
8:54 AM0 °C-6.7 °C61 %1028.8 hPa16.1 kmNNW (330°)31.5 km/h38.9 km/hMostly Cloudy
9:54 AM1.7 °C-5.6 °C59 %1029.1 hPa16.1 kmNW (320°)20.4 km/hMostly Cloudy
10:54 AM1.1 °C-6.1 °C59 %1029.5 hPa16.1 kmNNW (340°)24.1 km/hOvercast
11:54 AM1.7 °C-5.6 °C59 %1029.1 hPa16.1 kmNW (310°)20.4 km/hOvercast
11:56 AM2 °C-6 °C56 %1028.4 hPa16.1 kmNW (310°)16.7 km/hMostly Cloudy
12:54 PM2.2 °C-6.1 °C55 %1028.8 hPa16.1 kmNW (310°)14.8 km/hOvercast
1:54 PM2.8 °C-5.6 °C54 %1028.4 hPa16.1 kmNW (310°)18.5 km/hOvercast
2:54 PM3.3 °C-5.6 °C53 %1028.8 hPa16.1 kmWest (280°)13 km/h29.6 km/hMostly Cloudy
3:54 PM2.8 °C-6.1 °C52 %1028.4 hPa16.1 kmVariable11.1 km/hScattered Clouds
4:54 PM2.8 °C-6.1 °C52 %1028.4 hPa16.1 kmWNW (290°)14.8 km/hScattered Clouds
5:54 PM1.1 °C-6.7 °C56 %1028.4 hPa16.1 kmWNW (300°)13 km/hClear
6:54 PM-0.6 °C-6.7 °C64 %1028.4 hPa16.1 kmNorth (350°)5.6 km/hClear
7:54 PM-3.3 °C-6.7 °C78 %1028.4 hPa16.1 kmCalmClear
8:54 PM-2.8 °C-6.7 °C75 %1028.4 hPa16.1 kmCalmClear
9:54 PM-3.9 °C-7.2 °C78 %1028.8 hPa16.1 kmCalmClear
10:54 PM-4.4 °C-6.7 °C84 %1028.8 hPa16.1 kmCalmClear
11:54 PM-4.4 °C-6.7 °C84 %1028.8 hPa16.1 kmCalmClear
Hourly data recorded from KSUS, located 0 kilometers away from St. Louis, Missouri







STORIES FROM OUR PARTNERS